Regional Weather Roundup
Issued by NWS

Home | Current Version | Previous Version | Graphics & Text | Print | Product List | Glossary On
Versions: 1 2 3 4 5 6 7 8 9 10 11 12 13 14 15 16 17 18 19 20 21 22 23 24 25 26 27 28 29 30 31 32 33 34 35 36 37 38 39 40 41 42 43 44 45 46 47 48 49 50
000
ASUS43 KMPX 260001
RWRMN
WEATHER ROUNDUP FOR MINNESOTA
NATIONAL WEATHER SERVICE TWIN CITIES/CHANHASSEN MN
700 PM CDT SAT APR 25 2015


NOTE: "FAIR" INDICATES FEW OR NO CLOUDS BELOW 12,000 FEET WITH NO
SIGNIFICANT WEATHER AND/OR OBSTRUCTIONS TO VISIBILITY. N/A MEANS
CURRENT SKY AND/OR WEATHER CONDITIONS ARE NOT AVAILABLE.

MNZ060>063-068>070-260100-
   Twin Cities Metro

CITY           SKY/WX    TMP DP  RH WIND       PRES   REMARKS
TWIN CITIES    SUNNY     60  19  20 NE13      29.86R
6HR MIN TEMP:  56; 6HR MAX TEMP:  62;

ST PAUL        SUNNY     60  19  20 E10       29.87R
CRYSTAL        SUNNY     61  20  20 E12       29.86R
BLAINE         MOSUNNY   63  21  20 NE7       29.86R
LAKEVILLE      SUNNY     55  27  33 E9        29.86S
EDEN PRAIRIE   SUNNY     60  22  23 NE13      29.85R
6HR MIN TEMP:  55; 6HR MAX TEMP:  61;

SOUTH ST PAUL  SUNNY     61  18  19 E7        29.86S
LAKE ELMO      FAIR      61  23  23 E9        29.87S
$$
MNZ001>005-007-008-013>017-022>024-027-028-260100-
   Northwest Minnesota

CITY           SKY/WX    TMP DP  RH WIND       PRES   REMARKS
BEMIDJI        SUNNY     56  30  37 SE12      29.94R
HALLOCK        SUNNY     63  28  27 SE12      29.91R
ROSEAU         SUNNY     57  32  38 E20       29.94R
WARROAD        SUNNY     52  34  50 NE12      29.97R
THIEF RVR FALL SUNNY     61  30  31 E12       29.93R
CROOKSTON      MOSUNNY   63  34  34 E8        29.91R
FOSSTON        SUNNY     63  30  29 E7        29.93R
DETROIT LAKES  SUNNY     59  28  31 SE10      29.92R
MOORHEAD       SUNNY     61  36  39 E8        29.90S
PARK RAPIDS    SUNNY     58  26  29 E6        29.92R
MAHNOMEN       FAIR      59  30  33 SE9       29.90S
$$
MNZ006-009>011-018-025>026-260100-
   North Central Minnesota

CITY           SKY/WX    TMP DP  RH WIND       PRES   REMARKS
BAUDETTE       SUNNY     57  29  34 E9        29.96R
FLAG ISLAND    SUNNY     54  30  40 SE5       29.97R
INTL FALLS     SUNNY     55  24  30 E10       29.98R
6HR MIN TEMP:  52; 6HR MAX TEMP:  56;

WASKISH        SUNNY     61  32  33 CALM      29.94R
BIG FORK       SUNNY     57  28  33 E5        29.95R
LONGVILLE      SUNNY     55  28  35 E5        29.94S
GRAND RAPIDS   SUNNY     55  28  35 S5        29.95R
CRANE LAKE     SUNNY     55  18  22 CALM      29.99R
ORR            SUNNY     55  16  21 CALM      29.94S
COOK           SUNNY     54  19  26 NE5       29.97R
WALKER         FAIR      55  29  37 E3        29.93S
$$
MNZ012-019>021-037-260100-
   Northeast Minnesota

CITY           SKY/WX    TMP DP  RH WIND       PRES   REMARKS
DULUTH         SUNNY     41  14  33 E14       29.99R
6HR MIN TEMP:  41; 6HR MAX TEMP:  50;

ELY            SUNNY     52  14  22 E5        29.97R
HIBBING        SUNNY     53  12  19 SE12      29.96R
EVELETH        SUNNY     52  14  22 SE9       29.98R
DULUTH HARBOR  SUNNY     37  30  75 NE17      30.02S
TWO HARBORS    SUNNY     45  21  39 E10       30.00S
SILVER BAY     SUNNY     41  16  36 NE8       30.01R
GRAND MARAIS     N/A     40  21  46 CALM      30.04R
G MARAIS ARPRT CLEAR     37  16  41 S5        30.01R
$$
MNZ029>031-032-039>041-046>048-054>057-064-260100-
   West Central Minnesota

CITY           SKY/WX    TMP DP  RH WIND       PRES   REMARKS
FERGUS FALLS   MOSUNNY   59  34  38 SE6       29.90S
WHEATON        CLOUDY    54  43  66 E8        29.91R
MORRIS         PTSUNNY   57  41  54 E13       29.88S
ALEXANDRIA     SUNNY     56  37  49 E10       29.90R
ELBOW LAKE     FAIR      55  39  54 E5        29.89S
WADENA         SUNNY     55  28  35 E10G17    29.91R
GLENWOOD       MOSUNNY   54  41  62 NE8       29.90R
APPLETON       SUNNY     57  39  51 E9        29.88R
BENSON         MOSUNNY   57  37  47 SE7       29.89R
ORTONVILLE     CLOUDY    55  43  62 E5        29.89R
MADISON        MOSUNNY   59  39  47 E14       29.87R
WILLMAR        FAIR      57  37  47 E10       29.89R
$$
MNZ033>034-036-042>043-049>051-058-059-260100-
   Central Minnesota

CITY           SKY/WX    TMP DP  RH WIND       PRES   REMARKS
ST CLOUD       SUNNY     57  29  34 E12       29.89R
6HR MIN TEMP:  52; 6HR MAX TEMP:  60;

SAUK CENTRE    FAIR      56  37  48 NE8       29.90R
PAYNESVILLE    SUNNY     55  32  41 N8        29.89S
AITKIN         SUNNY     54  21  28 E9        29.94R
PINE RIVER     SUNNY     55  32  41 E9        29.97S
BRAINERD       SUNNY     54  27  35 E9G17     29.94R
STAPLES        SUNNY     55  25  30 E9        29.92R
LONG PRAIRIE   FAIR      54  34  47 NE10      29.91R
LITTLE FALLS   SUNNY     55  28  35 N7        29.91R
LITCHFIELD     SUNNY     61  28  29 E8        29.88S
BUFFALO        SUNNY     60  23  23 E7        29.88R
MAPLE LAKE     SUNNY     60  33  36 N10       29.88S
$$
MNZ037-044-045-052-053-260100-
   East Central Minnesota

CITY           SKY/WX    TMP DP  RH WIND       PRES   REMARKS
PRINCETON      SUNNY     55  32  41 N14G21    29.91R
MORA           SUNNY     50  28  43 NE7G17    29.94R
CAMBRIDGE      SUNNY     57  37  47 NE10G18   29.88R
RUSH CITY      SUNNY     53  31  43 N15G23    29.91R
MOOSE LAKE     SUNNY     45  21  39 NE8       29.96R
HINCKLEY       FAIR      50  27  40 NE12G20   29.93R
CLOQUET        SUNNY     41   9  26 E10       29.98S
MCGREGOR       SUNNY     50  19  29 E14       29.96R
$$
MNZ071>073-080-081-089-090-097-098-260100-
   Southwest Minnesota

CITY           SKY/WX    TMP DP  RH WIND       PRES   REMARKS
MONTEVIDEO     SUNNY     59  39  47 E13G18    29.88R
GRANITE FALLS  PTSUNNY   59  37  44 NE10      29.88R
CANBY          CLOUDY    58  38  47 E10G16    29.87R
MARSHALL       PTSUNNY   55  37  50 SE10      29.86R
REDWOOD FALLS  CLOUDY    58  37  45 E8        29.85R
OLIVIA         MOSUNNY   55  34  44 E8G16     29.86S
PIPESTONE      PTSUNNY   55  39  54 E12       29.84R
WINDOM         PTSUNNY   54  37  54 E15       29.86R
WORTHINGTON    CLOUDY    52  37  58 E16       29.86R
JACKSON        CLOUDY    52  37  58 E17       29.86R
TRACY          MOSUNNY   56  40  54 E13       29.87R
SLAYTON        PTSUNNY   53  38  57 NE9       29.87R
$$
MNZ065>067-074>077-082>085-091>093-260100-
   South Central Minnesota

CITY           SKY/WX    TMP DP  RH WIND       PRES   REMARKS
MANKATO        CLOUDY    55  36  47 E9        29.87R
NEW ULM        MOSUNNY   55  36  47 E8        29.87R
ST JAMES       PTSUNNY   55  37  50 E12       29.87S
FAIRMONT       CLOUDY    52  36  54 E14       29.86R
GLENCOE        SUNNY     60  31  33 NE8       29.86R
FARIBAULT      MOSUNNY   57  34  41 E7        29.87R
OWATONNA       MOSUNNY   54  37  54 E9        29.87R
WASECA         CLOUDY    52  37  58 E8        29.88R
ALBERT LEA     CLOUDY    52  39  62 NE9       29.86S
$$
MNZ078>079-086>088-094>096-260100-
   Southeast Minnesota

CITY           SKY/WX    TMP DP  RH WIND       PRES   REMARKS
ROCHESTER      MOSUNNY   53  32  44 NE12      29.87R
6HR MIN TEMP:  49; 6HR MAX TEMP:  54;

RED WING       SUNNY     61  18  18 E9        29.85S
STANTON        SUNNY     59  24  26 E8        29.85S
DODGE CENTER   MOSUNNY   54  37  54 E8        29.87R
WINONA         MOSUNNY   55  23  28 E9        29.86R
AUSTIN         MOSUNNY   52  37  58 E6        29.86R
PRESTON        PTSUNNY   52  33  48 E5        29.86R
$$
ABBREVIATIONS USED IN REMARKS
   TC - TEMPERATURES IN CELSIUS
  WCI - WIND CHILL INDEX
   HX - HEAT INDEX
  VSB - VISIBILITY
$$


USA.gov is the U.S. government's official web portal to all federal, state and local government web resources and services.